STARLINK-32936, 63147

Orbit data source: Space-Track

STARLINK-32936, 63147 is a payload satellite owned by SpaceX/Seattle (US) in LEO that was launched on Mon, 03 Mar 2025 UTC via an FALCON 9 launch vehicle from the Air Force Eastern Test Range (AFETR). Payload-class satellites include a variety of spacecraft equipped with specific instruments for various scientific and technological missions. These include communications satellites like Starlink; space stations such as the ISS; scientific satellites like the Hubble; Earth observation satellites from companies like Planet Labs, Umbra, and HawkEye 360; GPS; miniature CubeSats for education and research; and military/defense satellites.

Loading next visibility...
Identifier
63147, 2025-043R
Orbit
LEO
Country
Flag of USUS
Related business
Manufacturer
SpaceX/Seattle
Mission
Operational Commercial Communications
Bus & Motor
STARLINK V2M, Unknown motor
Mass
730 kg wet, ~700 kg dry
Launch date (UTC)
2025-03-03 (8 months ago)
Launch vehicle
FALCON 9
Launch site
Air Force Eastern Test Range (AFETR)
Object type
Payload
Rocket body
Debris
Shape & HBR
Box + 2 Pan, 17.7 m
Radar Cross Section
33.884 m², Large (>1 m²)

Expand to show TLE details & history
Last TLE update: 1 day ago

TLE from 1 day ago
0 STARLINK-32936
1 63147U 25043R   25290.95390052  .00037606  00000-0  13676-2 0  9993
2 63147  43.0026 109.1803 0001732 267.9238  92.1416 15.27616998 35454
Epoch: 2025-10-17T22:53Z
TLE epoch observation values (Epoch: 2025-10-17T22:53:37.004Z)
Latitude
Longitude
99.08425°
Altitude
482.759 km
Speed
7.626 km/s
True Right ascension
07h 16m 43s
True Declination
0° 00' 00"
Sunlit
Object was in daylight at epoch
Visualization orbit readout
Latitude
Unknown
Longitude
Unknown
Altitude
Unknown
Speed
Unknown
Apparent Right ascension
Unknown
Apparent Declination
Unknown
Sunlit
N/A
Visualization observer readout
Local Sidereal Time
18:37:14
Azimuth
Unknown
Elevation
Unknown
Doppler factor
Unknown
Orbital elements
Apogee altitude
486.072 km
Perigee altitude
483.694 km
Semi-major axis
6,863.02 km
Eccentricity
0.00017
Inclination
43.0026°
RAAN
109.1803°
Arg. of periapsis
267.9238°
True anomaly
92.16143°
Mean anomaly
92.1416°
Eccentric anomaly
92.15152°
Mean motion
3.81742 °/min
Orbital period
94.3 mins
BSTAR
0.0013676
Loading maneuver chart data...
Computing Atmospheric mass density...
Loading historical data...
Loading historical data...
Loading historical data...
Loading historical data...
Loading historical data...
Loading historical data...
Loading historical data...

Documentation

Showing up to 5 results
|